Time,TemperatureF,DewpointF,PressureIn,WindDirection,WindDirectionDegrees,WindSpeedMPH,WindSpeedGustMPH,Humidity,HourlyPrecipIn,Conditions,Clouds,dailyrainin,SoftwareType,DateUTC
2014-03-16 00:00:00,55.0,45.4,30.02,SSW,202,1.0,6.0,70,0.00,,,0.00,VWS V14.00,2014-03-16 04:00:00,
2014-03-16 00:30:00,53.9,45.1,30.00,SSW,202,0.0,1.0,72,0.00,,,0.00,VWS V14.00,2014-03-16 04:30:00,
2014-03-16 01:00:00,53.4,45.3,29.98,SSW,202,0.0,0.0,74,0.00,,,0.00,VWS V14.00,2014-03-16 05:00:00,
2014-03-16 01:30:00,52.8,44.8,29.98,SSW,202,0.0,0.0,74,0.00,,,0.00,VWS V14.00,2014-03-16 05:30:00,
2014-03-16 02:00:00,52.9,45.9,29.98,SSW,202,0.0,2.0,77,0.00,,,0.00,VWS V14.00,2014-03-16 06:00:00,
2014-03-16 02:30:00,54.0,46.6,29.98,SSW,202,0.0,3.0,76,0.00,,,0.00,VWS V14.00,2014-03-16 06:30:00,
2014-03-16 03:00:00,54.1,47.1,29.96,SSW,202,0.0,0.0,77,0.00,,,0.00,VWS V14.00,2014-03-16 07:00:00,
2014-03-16 03:30:00,53.8,47.5,29.96,SSW,202,0.0,0.0,79,0.00,,,0.00,VWS V14.00,2014-03-16 07:30:00,
2014-03-16 04:00:00,53.4,48.4,29.95,SSW,202,0.0,0.0,83,0.00,,,0.00,VWS V14.00,2014-03-16 08:00:00,
2014-03-16 04:30:00,52.7,49.0,29.95,SSW,202,0.0,1.0,87,0.00,,,0.00,VWS V14.00,2014-03-16 08:30:00,
2014-03-16 05:00:00,52.6,49.2,29.95,SSW,202,0.0,2.0,88,0.00,,,0.00,VWS V14.00,2014-03-16 09:00:00,
2014-03-16 05:30:00,52.6,49.2,29.94,SSW,202,0.0,0.0,88,0.00,,,0.00,VWS V14.00,2014-03-16 09:30:00,
2014-03-16 06:00:00,52.6,49.2,29.94,SSW,202,0.0,0.0,88,0.00,,,0.00,VWS V14.00,2014-03-16 10:00:00,
2014-03-16 06:30:00,52.6,49.2,29.93,SSW,202,0.0,0.0,88,0.00,,,0.00,VWS V14.00,2014-03-16 10:30:00,
2014-03-16 07:00:00,52.6,49.2,29.93,SSW,202,0.0,0.0,88,0.00,,,0.00,VWS V14.00,2014-03-16 11:00:00,
2014-03-16 07:30:00,52.6,49.2,29.93,SSW,202,0.0,0.0,88,0.00,,,0.00,VWS V14.00,2014-03-16 11:30:00,
2014-03-16 08:00:00,52.6,49.2,29.92,SSW,202,0.0,0.0,88,0.00,,,0.00,VWS V14.00,2014-03-16 12:00:00,
2014-03-16 08:30:00,52.6,49.2,29.91,SSW,202,0.0,0.0,88,0.00,,,0.00,VWS V14.00,2014-03-16 12:30:00,
2014-03-16 09:00:00,52.6,49.2,29.90,SSW,202,0.0,0.0,88,0.00,,,0.00,VWS V14.00,2014-03-16 13:00:00,
2014-03-16 09:30:00,52.6,49.2,29.92,SSW,202,0.0,0.0,88,0.00,,,0.00,VWS V14.00,2014-03-16 13:30:00,
2014-03-16 10:00:00,52.6,49.2,29.93,SSW,202,0.0,0.0,88,0.00,,,0.00,VWS V14.00,2014-03-16 14:00:00,
2014-03-16 10:30:00,52.6,49.2,29.93,SSW,202,0.0,0.0,88,0.00,,,0.00,VWS V14.00,2014-03-16 14:30:00,
2014-03-16 11:00:00,52.6,49.2,29.91,SSW,202,0.0,0.0,88,0.00,,,0.00,VWS V14.00,2014-03-16 15:00:00,
2014-03-16 11:30:00,52.6,49.2,29.89,SSW,202,0.0,0.0,88,0.00,,,0.00,VWS V14.00,2014-03-16 15:30:00,
2014-03-16 12:00:00,52.6,49.2,29.87,SSW,202,0.0,0.0,88,0.00,,,0.00,VWS V14.00,2014-03-16 16:00:00,
2014-03-16 12:30:00,52.6,49.2,29.87,SSW,202,0.0,0.0,88,0.00,,,0.00,VWS V14.00,2014-03-16 16:30:00,
2014-03-16 13:00:00,52.6,49.2,29.87,SSW,202,0.0,0.0,88,0.00,,,0.00,VWS V14.00,2014-03-16 17:00:00,
2014-03-16 13:30:00,52.6,49.2,29.86,SSW,202,0.0,0.0,88,0.00,,,0.00,VWS V14.00,2014-03-16 17:30:00,
2014-03-16 14:00:00,52.6,49.2,29.86,SSW,202,0.0,0.0,88,0.00,,,0.00,VWS V14.00,2014-03-16 18:00:00,
2014-03-16 14:30:00,52.6,49.2,29.84,SSW,202,0.0,0.0,88,0.00,,,0.00,VWS V14.00,2014-03-16 18:30:00,
2014-03-16 15:00:00,52.6,49.2,29.80,SSW,202,0.0,0.0,88,0.00,,,0.00,VWS V14.00,2014-03-16 19:00:00,
2014-03-16 15:30:00,52.6,49.2,29.82,SSW,202,0.0,0.0,88,0.00,,,0.00,VWS V14.00,2014-03-16 19:30:00,
2014-03-16 16:00:00,52.6,49.2,29.80,SSW,202,0.0,0.0,88,0.00,,,0.00,VWS V14.00,2014-03-16 20:00:00,
2014-03-16 16:30:00,52.6,49.2,29.72,SSW,202,0.0,0.0,88,0.00,,,0.00,VWS V14.00,2014-03-16 20:30:00,
2014-03-16 17:00:00,52.6,49.2,29.75,SSW,202,0.0,0.0,88,0.00,,,0.00,VWS V14.00,2014-03-16 21:00:00,
2014-03-16 17:30:00,52.6,49.2,29.73,SSW,202,0.0,0.0,88,0.00,,,0.00,VWS V14.00,2014-03-16 21:30:00,
2014-03-16 18:00:00,52.6,49.2,29.72,SSW,202,0.0,0.0,88,0.00,,,0.00,VWS V14.00,2014-03-16 22:00:00,
2014-03-16 18:30:00,52.6,49.2,29.73,SSW,202,0.0,0.0,88,0.00,,,0.00,VWS V14.00,2014-03-16 22:30:00,
2014-03-16 19:00:00,52.6,49.2,29.75,SSW,202,0.0,0.0,88,0.00,,,0.00,VWS V14.00,2014-03-16 23:00:00,
2014-03-16 19:30:00,52.6,49.2,29.74,SSW,202,0.0,0.0,88,0.00,,,0.00,VWS V14.00,2014-03-16 23:30:00,
2014-03-16 20:00:00,52.6,49.2,29.74,SSW,202,0.0,0.0,88,0.00,,,0.00,VWS V14.00,2014-03-17 00:00:00,
2014-03-16 20:30:00,52.6,49.2,29.72,SSW,202,0.0,0.0,88,0.00,,,0.00,VWS V14.00,2014-03-17 00:30:00,
2014-03-16 21:00:00,52.6,49.2,29.70,SSW,202,0.0,0.0,88,0.00,,,0.00,VWS V14.00,2014-03-17 01:00:00,
2014-03-16 21:30:00,52.6,49.2,29.70,SSW,202,0.0,0.0,88,0.00,,,0.00,VWS V14.00,2014-03-17 01:30:00,
2014-03-16 22:00:00,52.6,49.2,29.69,SSW,202,0.0,0.0,88,0.00,,,0.00,VWS V14.00,2014-03-17 02:00:00,
2014-03-16 22:30:00,52.6,49.2,29.69,SSW,202,0.0,0.0,88,0.00,,,0.00,VWS V14.00,2014-03-17 02:30:00,
2014-03-16 23:00:00,52.6,49.2,29.71,SSW,202,0.0,0.0,88,0.00,,,0.00,VWS V14.00,2014-03-17 03:00:00,
2014-03-16 23:30:00,52.6,49.2,29.70,SSW,202,0.0,0.0,88,0.00,,,0.00,VWS V14.00,2014-03-17 03:30:00,